This is the latest recevied weather packets stored in our database for station/object WX8ASH-13. If no packets are shown the sender has not sent any weather packets the latest 10 day(s).
| Time | Temp. | Humidity | Pressure | Rain* | Wind** | Luminosity | Snow |
|---|---|---|---|---|---|---|---|
| 1777836018 | -1.11° C | 49% | 1015.4 hPa | 0 mm | - | - | - |
| 1777834843 | 16.11° C | 47% | 1015.8 hPa | 0 mm | - | - | - |
| 1777834542 | 15.56° C | 45% | 1016 hPa | 0 mm | - | - | - |
| 1777834243 | 15.56° C | 45% | 1016 hPa | 0 mm | - | - | - |
| 1777833942 | 15.56° C | 45% | 1016 hPa | 0 mm | - | - | - |
| 1777833642 | 15° C | 50% | 1016.1 hPa | 0 mm | - | - | - |
| 1777833342 | 15° C | 48% | 1016.1 hPa | 0 mm | - | - | - |
| 1777833042 | 15° C | 48% | 1016.2 hPa | 0 mm | - | - | - |
| 1777832742 | 15° C | 47% | 1016.2 hPa | 0 mm | - | - | - |
| 1777832442 | 15° C | 47% | 1016.3 hPa | 0 mm | - | - | - |
| 1777832141 | 15° C | 47% | 1016.3 hPa | 0 mm | - | - | - |
| 1777831841 | 15° C | 45% | 1016.4 hPa | 0 mm | - | - | - |
| 1777831541 | 15° C | 47% | 1016.4 hPa | 0 mm | - | - | - |
| 1777831241 | 15° C | 46% | 1016.5 hPa | 0 mm | - | - | - |
| 1777830941 | 15° C | 47% | 1016.5 hPa | 0 mm | - | - | - |
| 1777830641 | 15° C | 51% | 1016.6 hPa | 0 mm | - | - | - |
| 1777830340 | 15° C | 46% | 1016.7 hPa | 0 mm | - | - | - |
| 1777830040 | 15° C | 50% | 1016.6 hPa | 0 mm | - | - | - |
| 1777829741 | 14.44° C | 48% | 1016.6 hPa | 0 mm | - | - | - |
| 1777829440 | 14.44° C | 51% | 1016.8 hPa | 0 mm | - | - | - |
| 1777829140 | 14.44° C | 52% | 1017 hPa | 0 mm | - | - | - |
| 1777828840 | 14.44° C | 49% | 1017 hPa | 0 mm | - | - | - |
| 1777828540 | 14.44° C | 51% | 1017.1 hPa | 0 mm | - | - | - |
| 1777828239 | 14.44° C | 52% | 1017.1 hPa | 0 mm | - | - | - |
| 1777827940 | 14.44° C | 52% | 1017.1 hPa | 0 mm | - | - | - |
* Rain latest hour (hover to see other rain measurements)
** Current wind speed in m/s (hover to see current wind gust speed)